Weather in Palenque

Mexico     17°30′35″N   91°58′46″W
temp.,
°C
wind,
m/s
gust,
m/s
humid.,
%
clouds,
%
prec.,
mm/h
press.,
hPa
HPBL,
m
25 july, sun
sun2501:00+22s229594 3.5 101633
04:00+22ssw1191100 0.0 101415
07:00+22ssw1191100 0.0 101413
10:00+27nw117439 0.0 1015422
13:00+30n226564 0.0 10141159
16:00+31nne225846 0.0 10111370
19:00+29wnw117328 0.1 101113
22:00+23wnw11946 1.9 101415
26 july, mon
mon2601:00+22sw11957 3.2 101421
04:00+22ssw22936 0.4 101222
07:00+21sw21936 0.4 101221
10:00+27w11765 0.0 1014391
13:00+30nnw22679 0.2 10131049
16:00+30n226520 0.9 10111040
19:00+26w3588100 2.6 1011106
22:00+24s119099 0.0 101312
27 july, tue
tue2701:00+22s119681 2.9 101414
04:00+22ssw119561 1.5 101218
07:00+21ssw11947 1.5 101314
10:00+27nne007891 0.0 1015416
13:00+30nne22658 0.0 10131087
16:00+31ne33605 0.0 10111303
19:00+29w11755 0.1 101111
22:00+24nw11878 0.8 101311
28 july, wed
wed2801:00+22s219621 6.7 101432
04:00+22s21939 1.6 101220
07:00+22s11935 1.6 101313
10:00+27ne117541 0.0 1014391
13:00+30nne226458 0.0 10131073
16:00+31ene346135 0.7 10111281
19:00+26n1182100 2.8 101019
22:00+23nw3598100 11.4 1014217
29 july, thu
thu2901:00+22s1196100 14.8 101419
04:00+22se229473 0.3 101248
07:00+22se2294100 0.3 101334
10:00+26e4780100 0.0 1014636
13:00+28ene567499 0.1 1013996
16:00+30se357122 2.4 10111035
19:00+28sw117884 2.9 101111
22:00+23ssw3396100 8.8 101496